Date,TemperatureHighF,TemperatureAvgF,TemperatureLowF,DewpointHighF,DewpointAvgF,DewpointLowF,HumidityHigh,HumidityAvg,HumidityLow,PressureMaxIn,PressureMinIn,WindSpeedMaxMPH,WindSpeedAvgMPH,GustSpeedMaxMPH,PrecipitationSumIn
2013-1-1,34,29,20,32,25,16,98,86,73,0.00,40.00,6,1,17,7.36
2013-1-2,26,16,5,18,13,5,97,83,62,0.00,40.00,6,1,6,0.00
2013-1-3,33,19,0,25,14,0,98,79,53,0.00,40.00,8,3,10,0.00
2013-1-4,33,28,24,27,20,16,78,69,56,0.00,40.00,11,6,19,0.00
2013-1-5,36,28,14,28,22,12,95,76,63,0.00,40.00,7,2,19,0.00
2013-1-6,39,35,31,34,30,27,94,79,69,0.00,40.00,7,4,10,3.42
2013-1-7,36,31,26,30,27,23,91,82,63,0.00,40.00,7,2,10,0.00
2013-1-8,43,32,22,32,26,21,94,79,55,0.00,40.00,6,2,10,0.00
2013-1-9,48,41,31,39,32,27,90,71,53,0.00,40.00,10,4,14,0.00
2013-1-10,42,35,24,32,30,23,99,79,63,0.00,40.00,8,3,14,0.00
2013-1-11,58,48,39,52,42,28,100,82,59,0.00,40.00,11,4,15,7.94
2013-1-12,62,56,47,59,53,46,100,92,80,0.00,40.00,9,3,15,0.00
2013-1-13,67,61,41,61,55,39,98,85,73,0.00,40.00,15,6,22,7.36
2013-1-14,42,32,26,41,27,21,99,81,69,0.00,40.00,7,2,22,0.00
2013-1-15,33,28,22,25,23,21,94,78,63,0.00,40.00,5,1,8,0.00
2013-1-16,38,33,29,28,26,21,81,73,58,0.00,40.00,9,3,12,0.00
2013-1-17,37,34,27,32,27,18,84,73,60,0.00,40.00,8,2,12,0.00
2013-1-18,34,27,16,23,17,10,77,62,49,0.00,40.00,13,6,17,0.00
2013-1-19,52,43,32,28,24,19,59,46,32,0.00,40.00,17,11,21,0.00
2013-1-20,47,31,22,32,19,12,69,58,46,0.00,40.00,14,6,21,0.00
2013-1-21,23,19,8,19,12,1,89,74,64,0.00,40.00,9,3,17,3.97
2013-1-22,14,8,5,7,1,-2,81,69,54,0.00,40.00,9,3,15,0.00
2013-1-23,20,12,1,16,5,-4,94,74,46,0.00,40.00,8,2,15,0.00
2013-1-24,25,16,12,16,10,1,94,75,37,0.00,40.00,4,1,12,1.14
2013-1-25,22,17,12,19,12,5,94,79,63,0.00,40.00,7,3,10,9.64
2013-1-26,30,24,14,25,20,12,94,83,56,0.00,40.00,4,1,10,6.25
2013-1-27,33,22,8,23,17,7,95,77,59,0.00,40.00,7,2,10,4.53
2013-1-28,51,42,30,50,40,23,100,95,51,0.00,40.00,11,6,14,11.33
2013-1-29,63,56,48,57,50,32,100,85,44,0.00,40.00,12,4,17,0.00
2013-1-30,65,58,38,57,51,34,99,81,68,0.00,40.00,18,8,24,5.11
2013-1-31,38,25,18,36,19,10,99,78,63,0.00,40.00,14,7,24,6.25
2013-2-1,19,15,10,14,8,3,82,71,62,0.00,40.00,11,6,19,1.14
2013-2-2,26,17,10,25,14,5,97,85,69,0.00,40.00,10,5,17,28.33
2013-2-3,24,21,16,23,18,12,97,84,66,0.00,40.00,7,2,17,7.39
2013-2-4,27,20,15,27,18,12,99,88,80,0.00,40.00,5,3,10,15.30
2013-2-5,31,28,23,28,24,19,99,86,68,0.00,40.00,4,1,8,1.14
2013-2-6,34,27,14,30,21,12,97,77,49,0.00,40.00,3,1,6,0.00
2013-2-7,45,32,13,32,24,12,91,70,50,0.00,40.00,8,4,10,0.00
2013-2-8,43,34,24,39,30,21,99,86,72,0.00,40.00,7,4,10,4.53
2013-2-9,35,27,21,25,21,18,91,76,54,0.00,40.00,4,1,10,0.00
2013-2-10,49,35,18,36,23,16,94,62,40,0.00,40.00,11,4,17,0.00
2013-2-11,52,44,34,46,36,25,97,74,55,0.00,40.00,16,9,21,1.14
2013-2-12,43,34,27,28,26,23,90,69,51,0.00,40.00,9,3,21,0.00
2013-2-13,38,30,24,32,28,23,97,87,77,0.00,40.00,2,0,12,0.00
2013-2-14,40,34,26,37,31,25,95,92,76,0.00,40.00,12,5,17,0.00
2013-2-15,39,33,23,32,26,21,90,73,56,0.00,40.00,4,2,17,3.97
2013-2-16,30,25,19,27,18,10,99,74,44,0.00,40.00,4,1,6,14.16
2013-2-17,24,18,10,19,12,5,94,76,53,0.00,40.00,5,2,6,0.00
2013-2-18,49,28,7,32,18,5,93,66,45,0.00,40.00,11,5,14,0.00
2013-2-19,50,33,18,41,28,14,99,81,51,0.00,40.00,16,9,21,5.66
2013-2-20,24,20,17,19,15,9,90,78,68,0.00,40.00,11,4,21,3.97
2013-2-21,28,23,19,21,17,14,90,76,62,0.00,40.00,6,2,15,12.47
2013-2-22,42,32,21,39,28,16,99,85,73,0.00,40.00,11,5,14,10.19
2013-2-23,42,36,29,34,30,25,86,77,56,0.00,40.00,4,1,14,0.00
2013-2-24,35,31,26,28,25,19,88,76,62,0.00,40.00,5,1,6,0.00
2013-2-25,44,35,23,32,26,21,97,70,45,0.00,40.00,6,2,8,0.00
2013-2-26,39,35,31,36,28,23,99,76,58,0.00,40.00,16,6,24,10.77
2013-2-27,42,38,34,37,35,32,98,91,80,0.00,40.00,12,6,17,15.30
2013-2-28,40,34,31,36,32,28,98,91,82,0.00,40.00,8,3,17,5.11
2013-3-1,34,30,25,30,27,23,93,85,78,0.00,40.00,5,2,8,9.08
2013-3-2,32,27,21,28,24,19,95,85,69,0.00,40.00,4,2,8,30.60
2013-3-3,29,25,21,25,21,16,95,81,63,0.00,40.00,4,2,8,9.64
2013-3-4,38,28,17,25,21,14,90,71,49,0.00,40.00,4,1,8,0.00
2013-3-5,44,34,23,27,21,16,88,61,33,0.00,40.00,11,5,14,0.00
2013-3-6,45,37,30,34,31,23,100,80,53,0.00,40.00,12,3,17,3.97
2013-3-7,43,35,29,34,31,28,97,86,67,0.00,40.00,4,1,12,6.80
2013-3-8,43,33,25,32,29,23,97,82,60,0.00,40.00,4,1,6,0.00
2013-3-9,55,42,23,36,29,23,98,64,36,0.00,40.00,7,2,8,0.00
2013-3-10,67,56,43,37,34,32,78,47,29,0.00,40.00,9,3,14,0.00
2013-3-11,63,55,44,50,41,32,95,64,33,0.00,40.00,11,6,15,5.11
2013-3-12,44,37,32,37,31,27,93,79,69,0.00,40.00,9,4,15,0.00
2013-3-13,34,31,26,34,27,19,100,83,62,0.00,40.00,7,3,12,5.67
2013-3-14,42,30,22,27,22,18,81,68,49,0.00,40.00,7,2,12,0.00
2013-3-15,50,39,30,37,30,23,93,69,55,0.00,40.00,9,3,14,0.00
2013-3-16,40,36,29,39,35,27,100,97,89,0.00,40.00,6,2,14,6.80
2013-3-17,36,32,29,30,26,19,91,76,59,0.00,40.00,5,1,10,0.00
2013-3-18,49,38,29,48,34,19,100,90,67,0.00,40.00,17,8,22,8.50
2013-3-19,45,33,27,41,24,18,90,67,51,0.00,40.00,12,7,22,0.00
2013-3-20,34,29,21,25,19,16,81,64,50,0.00,40.00,11,3,19,0.00
2013-3-21,32,24,13,27,17,9,82,72,58,0.00,40.00,7,3,17,0.00
2013-3-22,40,30,24,27,21,16,81,67,46,0.00,40.00,6,2,12,0.00
2013-3-23,46,34,22,30,25,21,93,68,42,0.00,40.00,4,1,6,0.00
2013-3-24,38,32,27,27,24,21,85,70,54,0.00,40.00,10,3,15,0.00
2013-3-25,39,34,32,34,32,27,100,90,66,0.00,40.00,9,3,15,6.81
2013-3-26,43,36,31,36,32,28,100,86,55,0.00,40.00,6,2,8,1.14
2013-3-27,43,38,32,36,30,23,97,73,47,0.00,40.00,6,3,8,2.28
2013-3-28,47,39,32,32,28,25,86,63,47,0.00,40.00,5,2,8,0.00
2013-3-29,53,42,31,34,28,21,89,59,32,0.00,40.00,6,1,10,0.00
2013-3-30,56,43,26,36,28,21,99,60,28,0.00,40.00,7,2,10,0.00
2013-3-31,54,46,38,48,36,-100,90,73,50,0.00,40.00,9,4,12,4.53
2013-4-1,50,40,32,41,24,12,77,55,29,0.00,40.00,9,4,12,0.00
2013-4-2,42,32,22,21,16,10,73,51,32,0.00,40.00,8,2,10,0.00
2013-4-3,41,33,22,23,17,12,88,53,31,0.00,40.00,6,2,10,0.00
2013-4-4,54,34,20,21,16,9,94,56,18,0.00,40.00,6,2,10,0.00
2013-4-8,72,70,60,54,48,45,64,50,41,0.00,40.00,14,10,19,0.00
2013-4-9,80,68,50,55,50,43,86,57,38,0.00,40.00,13,4,19,0.00
2013-4-10,78,67,52,66,57,32,100,76,37,0.00,40.00,11,4,19,0.00
2013-4-11,59,54,45,57,50,32,100,90,37,0.00,40.00,9,2,17,4.53
2013-4-12,64,50,41,61,45,32,100,88,69,0.00,40.00,11,4,14,3.97
2013-4-13,47,42,35,36,33,32,85,72,59,0.00,40.00,11,5,17,0.00
2013-4-14,62,47,32,45,34,30,99,67,37,0.00,40.00,6,2,17,0.00
2013-4-15,71,62,53,52,45,36,68,57,49,0.00,40.00,13,6,17,0.00
2013-4-16,77,62,51,63,53,32,100,76,42,0.00,40.00,13,5,17,0.00
2013-4-17,69,58,49,55,48,41,100,76,47,0.00,40.00,8,3,17,0.00
2013-4-18,84,72,59,63,56,50,90,64,32,0.00,40.00,17,8,21,0.00
2013-4-19,76,56,40,63,44,30,95,67,47,0.00,40.00,15,8,21,1.14
2013-4-20,46,40,34,34,29,23,93,66,44,0.00,40.00,14,5,19,3.97
2013-4-21,53,41,27,32,27,21,99,61,32,0.00,40.00,7,2,12,0.00
2013-4-22,66,51,36,37,33,27,90,52,29,0.00,40.00,8,3,12,0.00
2013-4-23,72,59,44,48,36,27,68,44,29,0.00,40.00,10,5,14,0.00
2013-4-24,63,50,35,55,44,32,100,86,47,0.00,40.00,14,4,17,5.66
2013-4-25,54,43,33,45,35,30,95,77,44,0.00,40.00,12,4,17,0.00
2013-4-26,60,47,32,43,32,25,100,64,27,0.00,40.00,3,1,14,0.00
2013-4-27,73,55,35,50,36,28,100,59,22,0.00,40.00,7,2,10,0.00
2013-4-28,60,55,49,57,49,-100,100,87,64,0.00,40.00,9,4,12,6.81
2013-4-29,67,61,56,59,55,52,97,86,62,0.00,40.00,6,2,12,0.00
2013-4-30,77,63,48,57,52,32,100,74,41,0.00,40.00,9,3,12,0.00
2013-5-1,80,68,56,57,52,46,85,61,33,0.00,40.00,9,4,12,0.00
2013-5-2,78,68,55,55,44,36,75,45,31,0.00,40.00,8,4,12,0.00
2013-5-3,78,67,56,46,38,32,58,37,20,0.00,40.00,12,6,15,0.00
2013-5-4,72,63,53,48,37,32,60,41,23,0.00,40.00,12,8,19,0.00
2013-5-5,74,64,53,45,35,25,63,38,16,0.00,40.00,12,7,19,0.00
2013-5-6,74,64,54,54,44,27,66,49,24,0.00,40.00,10,6,17,0.00
2013-5-7,72,64,59,61,54,52,99,72,54,0.00,40.00,9,4,14,0.00
2013-5-8,76,65,59,59,54,46,93,72,42,0.00,40.00,7,1,12,0.00
2013-5-9,82,68,55,59,51,41,99,64,25,0.00,40.00,4,1,10,0.00
2013-5-10,74,64,59,68,57,-100,98,85,62,0.00,40.00,10,4,14,0.00
2013-5-11,64,53,47,61,48,43,99,89,73,0.00,40.00,6,2,14,0.00
2013-5-12,52,45,37,43,31,-100,90,63,40,0.00,40.00,6,3,12,0.00
2013-5-13,54,44,31,36,29,23,90,57,31,0.00,40.00,7,2,10,0.00
2013-5-14,68,52,36,46,36,28,85,57,36,0.00,40.00,10,4,17,0.00
2013-5-15,87,71,56,59,52,41,81,56,28,0.00,40.00,7,3,17,0.00
2013-5-16,82,65,57,59,31,-100,94,55,27,0.00,40.00,4,1,12,0.00
2013-5-17,83,66,52,64,50,-100,100,73,34,0.00,40.00,3,1,6,0.00
2013-5-18,83,70,55,63,52,41,82,56,33,0.00,40.00,5,1,8,0.00
2013-5-19,82,73,63,66,63,59,97,74,54,0.00,40.00,6,3,10,0.00
2013-5-20,82,74,66,72,67,63,97,83,64,0.00,40.00,8,3,12,0.00
2013-5-21,86,77,70,70,66,61,94,73,47,0.00,40.00,10,4,15,0.00
2013-5-22,84,76,67,66,61,57,85,63,45,0.00,40.00,13,6,19,0.00
2013-5-23,74,63,43,64,58,41,100,85,58,0.00,40.00,7,3,19,0.00
2013-5-24,49,44,36,43,36,32,94,75,55,0.00,40.00,6,2,12,0.00
2013-5-25,63,48,32,41,34,30,100,66,29,0.00,40.00,4,1,8,0.00
2013-5-26,68,53,35,43,35,30,100,58,25,0.00,40.00,3,1,8,0.00
2013-5-27,63,53,42,52,43,37,93,73,53,0.00,40.00,9,2,12,0.00
2013-5-28,84,69,53,66,59,50,97,75,47,0.00,40.00,10,4,15,0.00
2013-5-29,87,78,71,63,59,54,66,54,38,0.00,40.00,10,5,17,0.00
2013-5-30,89,78,65,66,61,54,94,62,33,0.00,40.00,8,3,17,0.00
2013-5-31,87,76,67,68,64,59,99,71,41,0.00,40.00,12,4,14,0.00
2013-6-1,83,75,66,70,66,63,95,76,59,0.00,40.00,12,5,19,0.00
2013-6-2,78,72,64,72,61,-100,100,75,49,0.00,40.00,7,2,19,0.00
2013-6-3,69,60,49,59,48,36,88,67,40,0.00,40.00,4,1,12,0.00
2013-6-4,74,60,42,50,44,41,98,64,33,0.00,40.00,4,1,6,0.00
2013-6-5,82,66,49,57,49,45,94,60,32,0.00,40.00,4,1,8,0.00
2013-6-6,67,62,54,66,59,48,100,94,58,0.00,40.00,3,1,8,0.00
2013-6-7,64,59,55,59,56,54,100,94,82,0.00,40.00,2,1,4,0.00
2013-6-8,76,65,55,61,54,48,97,75,42,0.00,40.00,3,0,6,0.00
2013-6-9,82,70,58,64,60,55,97,73,50,0.00,40.00,8,2,12,0.00
2013-6-10,75,70,65,70,65,61,100,88,72,0.00,40.00,9,2,12,0.00
2013-6-11,82,72,64,68,64,61,98,80,54,0.00,40.00,4,1,12,0.00
2013-6-12,85,76,65,75,67,61,98,78,58,0.00,40.00,9,1,14,0.00
2013-6-13,74,68,63,66,60,50,100,80,54,0.00,40.00,7,2,14,0.00
2013-6-14,75,65,58,61,56,50,97,78,53,0.00,40.00,4,1,8,0.00
2013-6-15,81,66,50,63,53,45,99,69,32,0.00,40.00,5,1,8,0.00
2013-6-16,78,70,65,70,64,57,99,85,68,0.00,40.00,9,2,12,0.00
2013-6-17,85,72,65,68,63,55,99,78,44,0.00,40.00,5,1,12,0.00
2013-6-18,81,70,61,68,62,52,97,78,58,0.00,40.00,4,1,6,0.00
2013-6-19,77,65,51,54,48,41,94,60,31,0.00,40.00,5,1,8,0.00
2013-6-22,89,86,78,70,65,64,69,52,46,0.00,40.00,7,4,10,0.00
2013-6-23,88,85,77,70,66,61,78,55,44,0.00,40.00,7,4,10,0.00
2013-6-24,88,80,69,68,65,61,86,63,45,0.00,40.00,6,2,12,0.00
2013-6-25,90,85,74,73,69,66,84,61,51,0.00,40.00,6,4,12,0.00
2013-6-26,82,71,67,72,67,66,99,92,72,0.00,40.00,4,2,12,0.00
2013-6-27,83,75,68,72,68,66,100,83,59,0.00,40.00,2,1,8,0.00
2013-6-28,81,75,68,70,66,64,98,79,59,0.00,40.00,2,1,4,0.00
2013-7-14,90,84,82,72,70,66,71,64,56,0.00,40.00,5,3,10,0.00
2013-7-15,92,80,74,75,73,70,91,82,49,0.00,40.00,0,0,10,0.00
2013-7-16,88,80,74,75,73,72,95,84,69,0.00,40.00,1,0,4,0.00
2013-7-17,93,89,75,75,73,72,98,62,51,0.00,40.00,1,0,2,0.00
2013-7-18,91,78,75,75,73,70,97,88,51,0.00,40.00,2,0,6,0.00
2013-7-19,81,78,76,73,72,70,90,85,73,0.00,40.00,4,1,12,0.00
2013-7-20,74,54,71,70,28,-100,97,69,89,0.00,40.00,8,2,12,0.00
2013-7-26,80,68,56,63,57,54,97,74,41,0.00,40.00,3,1,8,0.00
2013-7-27,71,70,69,66,65,64,90,88,85,0.00,40.00,3,2,8,0.00
2013-7-28,69,64,56,63,55,52,98,76,58,0.00,40.00,4,2,10,0.00
2013-7-29,67,62,58,59,56,52,94,84,60,0.00,40.00,2,0,10,0.00
2013-7-30,80,72,56,63,57,54,99,66,42,0.00,40.00,1,0,8,0.00
2013-7-31,72,69,62,68,65,61,98,92,88,0.00,40.00,1,0,6,0.00
2013-8-1,80,70,63,66,62,57,99,81,47,0.00,40.00,1,0,4,0.00
2013-8-2,74,67,57,66,58,55,98,80,54,0.00,40.00,6,1,8,0.00
2013-8-3,79,68,66,66,64,57,99,93,50,0.00,40.00,3,1,8,0.00
2013-8-4,68,62,58,59,57,55,99,88,68,0.00,40.00,2,0,6,0.00
2013-8-5,77,70,57,61,54,50,95,64,41,0.00,40.00,2,1,6,0.00
2013-8-6,80,67,59,64,58,55,97,80,46,0.00,40.00,4,1,8,0.00
2013-11-2,49,45,43,45,42,41,94,90,78,0.00,40.00,4,3,10,0.00
2013-11-3,46,44,42,39,36,32,93,76,59,0.00,40.00,4,2,10,0.00
2013-11-5,54,48,43,37,34,30,60,57,54,0.00,40.00,4,3,10,0.00
2013-11-6,67,66,66,50,49,48,56,56,55,0.00,40.00,12,10,19,0.00
2013-11-7,46,44,42,45,37,30,98,78,62,0.00,40.00,4,2,19,0.00
2013-12-8,14,14,14,14,14,14,95,95,95,0.00,40.00,0,0,4,0.00
2013-12-9,31,30,27,25,24,21,77,76,75,0.00,40.00,6,6,14,0.00
2013-12-10,27,26,26,21,16,10,77,62,47,0.00,40.00,13,10,15,0.00
2013-12-11,21,21,21,14,14,14,73,73,73,0.00,40.00,2,2,15,0.00
2013-12-12,19,19,19,16,16,16,80,80,80,0.00,40.00,4,4,10,0.00
2013-12-13,27,24,20,25,16,7,85,70,54,0.00,40.00,4,2,14,0.00
2013-12-14,39,28,27,32,4,-100,85,63,75,0.00,40.00,3,2,10,0.00